Location: Slidell
(30.2789°N, 89.7378°W)
Time: 13:12:14
(UTC-05:00)

Envisat - Visible Passes

Search period start: 16 July 2019 00:00
Search period end: 26 July 2019 00:00
Orbit: 764 x 766 km, 98.1° (Epoch: 16 July)

Date Brightness Start Highest point End Pass type
(mag) Time Alt. Az. Time Alt. Az. Time Alt. Az.
18 Jul 5.7 20:38:34 10° SW 20:41:35 16° W 20:44:36 10° WNW visible
21 Jul 5.6 20:26:31 10° SW 20:30:16 21° W 20:34:02 10° NW visible
23 Jul 6.2 20:55:16 10° W 20:55:58 10° W 20:56:40 10° W visible
24 Jul 5.2 20:14:43 10° SSW 20:18:58 27° W 20:23:14 10° NW visible
